Location: Givhans Ferry State Park
(33.0284°N, 80.3868°W)
Time: 12:00:51
(UTC-04:00)

Daily predictions for brighter satellites

Satellite Brightness Start Highest point End
(mag) Time Altitude Azimuth Time Altitude Azimuth Time Altitude Azimuth
COSMOS 2455 3.7 20:42:28 10° SSE 20:47:25 28° ESE 20:52:24 10° NE
Cosmos 1331 Rocket 4.3 20:45:11 10° N 20:50:15 50° ENE 20:55:13 10° SE
Delta 168 3.9 20:47:49 10° SW 20:50:22 22° S 20:53:21 10° ESE
FengYun 1-2 T 4.3 20:45:26 10° SSE 20:50:57 85° WSW 20:56:27 10° NNW
Meteor 2-4 Rocket 3.9 20:45:40 10° S 20:51:22 58° E 20:57:11 10° NNE
Cosmos 2297 3.8 20:49:12 10° NNW 20:54:53 66° ENE 21:00:34 10° SSE
GEOS 3 Rocket 4.4 20:50:52 10° ESE 20:55:42 38° NE 21:00:29 10° NNW
Aureole 2 Rocket 2.6 20:51:52 10° S 20:55:51 66° ESE 20:59:30 10° NNE
ATLAS 3B R/B 3.9 20:55:18 10° SSE 21:01:01 23° ESE 21:06:43 10° ENE
Meteor 1-19 Rocket 4.4 20:56:08 10° S 21:01:45 80° W 21:07:21 10° N
Cosmos 1606 Rocket 3.5 20:57:37 10° N 21:02:03 84° E 21:06:26 10° S
deb Chang Zheng 4 4.1 20:58:51 10° NNE 21:02:57 39° E 21:07:01 10° S
H-2A R/B 2.8 21:02:05 10° SSE 21:05:59 70° ENE 21:09:56 10° N
H-2A R/B 3.1 21:02:22 10° SE 21:06:02 29° ENE 21:09:47 10° N
DEBRIS 4.5 21:08:47 10° NW 21:13:29 24° NNE 21:15:47 10° ENE
Cosmos 1626 Rocket 4.1 21:09:25 10° SSE 21:13:34 39° E 21:17:41 10° NNE
Cosmos 2034 Rocket 4.5 21:07:46 10° N 21:13:47 43° E 21:19:37 10° SSE
Abrixas rocket 2.7 21:15:21 10° NW 21:18:42 53° NE 21:21:07 17° ESE
Okean 2 3.7 21:16:20 10° S 21:20:30 74° W 21:24:41 10° N
Cosmos 2228 3.2 21:17:16 10° N 21:21:37 54° E 21:25:30 12° SSE
ISS -2.9 21:18:40 10° SW 21:21:54 65° NW 21:25:08 10° NE
ERS-1 Rocket 3.1 21:17:06 10° SSE 21:22:00 59° ENE 21:26:57 10° N
ALOS 2.8 21:23:39 10° S 21:28:14 58° W 21:32:50 10° NNW
Lacrosse 4 Rocket 2.9 21:30:12 17° E 21:30:12 17° E 21:32:24 10° ENE
Envisat 3.7 21:28:22 17° SE 21:31:40 37° ENE 21:36:19 10° N
Cosmos 2278 Rocket 4.1 21:27:41 10° NW 21:32:19 26° WSW 21:36:57 10° SSW
Milstar 3 Cent rocket 3.4 21:24:30 10° W 21:32:26 37° SSW 21:35:59 18° SSE
APEX 3.9 21:28:06 10° NNW 21:32:33 78° ENE 21:37:10 16° SSE
Timation 1 Rocket 4.5 21:28:08 10° NNW 21:34:05 61° ENE 21:38:25 19° SE
SPOT 5 3.6 21:34:22 20° ESE 21:36:31 31° ENE 21:40:21 10° N
CZ-2C R/B 0.8 21:35:44 23° S 21:36:56 58° W 21:39:11 10° NNW
Nimbus 7 Rocket 4.4 21:31:21 10° NNE 21:37:16 67° ESE 21:43:06 10° S
Cosmos 2369 Rocket 3.7 21:40:15 10° N 21:44:25 21° ENE 21:46:52 16° E
CZ-4 SHROUD 4.0 21:43:53 31° ESE 21:44:30 34° ENE 21:47:25 10° N
Cosmos 1666 3.1 21:44:44 10° NNW 21:48:36 65° W 21:51:35 16° S
Cosmos 1891 Rocket 4.4 21:46:38 10° N 21:52:45 85° W 21:58:00 14° S
ATLAS CENTAUR Rocket 4.1 21:48:31 10° WSW 21:54:47 68° SSE 22:48:11 10° E
ATLAS CENTAUR Rocket 4.1 21:48:31 10° WSW 21:54:48 68° SSE 22:48:11 10° E
Cosmos 1461 2.8 21:51:27 10° NNW 21:55:41 86° WSW 21:57:21 34° SSE
PSLV R/B 3.1 22:01:57 60° ESE 22:02:11 63° ENE 22:05:15 10° N
Atlas Centaur 2 2.9 21:55:45 10° WSW 22:03:03 72° S 22:09:41 18° E
Cosmos 1992 Rocket 4.4 22:06:19 10° N 22:11:22 48° ENE 22:12:50 37° ESE
Cosmos 1900 4.5 22:11:17 30° S 22:13:34 53° ESE 22:18:34 10° NE
Cosmos 1515 3.7 22:13:45 39° SSW 22:15:05 82° W 22:18:58 10° N
YAOGAN 6 3.1 22:17:10 45° ENE 22:17:10 45° ENE 22:20:41 10° N
Cosmos 1939 Rocket 3.7 22:15:40 25° SSW 22:17:45 47° W 22:21:46 10° NNW
ATLAS 5 CENTAUR R/B 3.2 22:15:21 10° SSW 22:15:53 13° SSW 22:15:53 13° SSW
Cosmos 1066 Rocket 4.2 22:16:11 31° S 22:18:59 70° E 22:24:44 10° NNE
SeaSat 1 2.4 22:21:31 46° SE 22:22:55 72° ENE 22:27:50 10° NNW
Cosmos 1825 Rocket 3.4 22:22:14 48° S 22:23:26 82° E 22:27:53 10° N
H-2A R/B 3.5 22:26:31 21° ENE 22:26:46 21° ENE 22:30:26 10° NNE
Cosmos 1190 Rocket 3.9 22:25:34 24° SSW 22:28:50 88° WNW 22:34:11 10° NNE
Geosat 4.2 22:24:12 10° NE 22:28:49 46° ESE 22:28:49 46° ESE
COSMOS 2455 4.3 22:27:35 10° SW 22:33:07 38° WNW 22:38:42 10° N
Cosmos 1812 Rocket 4.5 22:30:08 10° NNW 22:34:19 44° W 22:35:59 30° SW
SPOT 1/Viking Rocket 3.4 22:34:19 55° SE 22:35:23 74° ENE 22:40:32 10° N
MetOp-A 4.2 22:34:38 42° S 22:36:28 75° WSW 22:41:49 10° NNW
CZ-4B R/B 3.9 22:33:08 10° N 22:38:13 64° WNW 22:41:24 23° SSW
Cosmos 1943 3.8 22:34:58 10° SW 22:40:31 57° WNW 22:46:08 10° NNE
Cosmos 1346 Rocket 2.8 22:41:40 73° NNW 22:41:40 73° NNW 22:45:19 10° N
H-2A R/B 4.4 22:39:26 11° SW 22:42:02 18° W 22:45:02 10° NW
Cosmos 1943 Rocket 3.5 22:41:05 10° N 22:45:39 25° ENE 22:46:09 25° ENE
Cosmos 676 Rocket 3.9 22:44:54 63° SSE 22:45:41 77° ESE 22:51:02 10° NNE
Cosmos 2142 Rocket 4.4 22:42:38 10° N 22:48:56 88° W 22:50:41 51° S
ATLAS 3B R/B 3.3 22:43:34 10° SW 22:51:12 65° WNW 22:58:45 10° NNE
USA 245 4.3 22:51:01 50° S 22:52:37 74° WSW 22:57:58 10° NNW
SL-08 RB Rocket 3.7 22:53:21 71° NE 22:53:21 71° NE 22:57:36 10° N
Meteor 1-21 4.1 22:55:45 62° S 22:56:48 87° E 23:02:38 10° N
Cosmos 1634 Rocket 4.1 22:52:29 10° NNW 22:58:37 69° W 23:00:25 47° SSW
USA 234 3.3 23:03:51 50° ESE 23:05:29 68° NE 23:12:00 10° NW
Lacrosse 4 Rocket 3.2 23:06:24 20° WSW 23:08:13 29° WNW 23:11:47 10° N
Landsat 7 4.0 23:10:50 67° N 23:10:50 67° N 23:15:00 10° N
ARGOS 3.4 23:14:27 56° WSW 23:14:55 58° W 23:20:16 10° NNW
Cosmos 2279 Rocket 3.9 23:14:33 10° N 23:20:49 81° W 23:21:24 73° SSW
Terra 2.4 23:27:07 54° N 23:27:07 54° N 23:30:48 10° N
Cosmos-2242 4.1 23:22:00 10° N 23:24:56 42° N 23:24:56 42° N
Cosmos 1607 4.0 23:29:24 65° ENE 23:29:24 65° ENE 23:34:48 10° NNE
Cosmos 2369 Rocket 2.8 23:23:16 10° NW 23:28:38 46° WSW 23:28:41 46° WSW
USA 238 DEB 3.8 23:28:44 45° SW 23:31:08 79° WNW 23:38:14 10° NNE
USA 238 3.7 23:28:57 47° SW 23:31:14 80° WNW 23:38:20 10° NNE
